sat.trackr.live / text

‹ back to catalog

STARLINK-30430

NORAD 57849 · 2023-141K

PAYLOAD ACTIVE UNKNOWN

§ Identity

Operator
Country
US
Launch date
2023-09-12
Launch site
AFWTR
Launch vehicle
Mass (kg)
RCS (m²)

Purposes: comms

External: N2YO · Heavens-Above · Gunter

§ Orbital elements

Epoch: 2026-05-24T21:18:03.282336Z

Period
94.05 min
Inclination
53.1612°
Eccentricity
0.0000939
Mean motion
15.31155705 rev/d
Perigee alt
471.7 km
Apogee alt
473.0 km
Semi-major
6,850.5 km
B*
3.3587e-3
RAAN
290.2371°
Arg perigee
51.1475°
Mean anomaly
308.9609°
Rev number
15,199

§ Raw data

STARLINK-304301 57849U 23141K   26144.88753799  .00103541  00000+0  33587-2 0  99982 57849  53.1612 290.2371 0000939  51.1475 308.9609 15.31155705151994

JSON: /api/v1/satellites/57849 · /tle

For live sub-satellite position, see the globe view (requires WebGL).

§ Visibility from observer

Set your observer location to see the next 7 days of passes ≥ 10°. The values pass through the URL so the page stays shareable.

No JS? Fill the form by hand. The geolocation button needs JavaScript.